Time,TemperatureF,DewpointF,PressureIn,WindDirection,WindDirectionDegrees,WindSpeedMPH,WindSpeedGustMPH,Humidity,HourlyPrecipIn,Conditions,Clouds,dailyrainin,SoftwareType,DateUTC
2013-03-08 00:00:00,9.1,-8.9,28.82,NE,56,0.0,0.0,43,0.00,CLR,OVC,0.00,WeatherDisplay:10.37,2013-03-08 05:00:00,
2013-03-08 00:01:00,9.1,-8.9,28.82,NE,56,0.0,0.0,43,0.00,CLR,OVC,0.00,WeatherDisplay:10.37,2013-03-08 05:01:00,
2013-03-08 00:06:00,9.1,-8.9,28.82,NE,56,0.0,0.0,43,0.00,CLR,OVC,0.00,WeatherDisplay:10.37,2013-03-08 05:06:00,
2013-03-08 00:11:00,9.0,-9.0,28.82,NE,56,0.0,0.0,43,0.00,CLR,OVC,0.00,WeatherDisplay:10.37,2013-03-08 05:11:00,
2013-03-08 00:16:00,8.4,-9.5,28.82,NE,56,0.0,0.0,43,0.00,CLR,OVC,0.00,WeatherDisplay:10.37,2013-03-08 05:16:00,
2013-03-08 00:21:00,7.9,-10.0,28.82,NE,56,0.0,0.0,43,0.00,CLR,OVC,0.00,WeatherDisplay:10.37,2013-03-08 05:21:00,
2013-03-08 00:26:00,7.9,-10.0,28.82,NE,56,0.0,0.0,43,0.00,CLR,OVC,0.00,WeatherDisplay:10.37,2013-03-08 05:26:00,
2013-03-08 00:31:00,8.1,-9.9,28.82,NE,56,0.0,0.0,43,0.00,CLR,OVC,0.00,WeatherDisplay:10.37,2013-03-08 05:31:00,
2013-03-08 00:36:00,8.4,-9.5,28.82,NE,56,0.0,0.0,43,0.00,CLR,OVC,0.00,WeatherDisplay:10.37,2013-03-08 05:36:00,
2013-03-08 00:41:00,8.4,-9.5,28.82,NE,56,0.0,0.0,43,0.00,CLR,OVC,0.00,WeatherDisplay:10.37,2013-03-08 05:41:00,
2013-03-08 00:46:00,8.6,-9.4,28.82,NE,56,0.0,0.0,43,0.00,CLR,OVC,0.00,WeatherDisplay:10.37,2013-03-08 05:46:00,
2013-03-08 00:51:00,8.6,-9.4,28.82,NE,56,0.0,0.0,43,0.00,CLR,OVC,0.00,WeatherDisplay:10.37,2013-03-08 05:51:00,
2013-03-08 00:56:00,9.0,-9.0,28.82,NE,56,0.0,0.0,43,0.00,CLR,OVC,0.00,WeatherDisplay:10.37,2013-03-08 05:56:00,
2013-03-08 01:01:00,9.3,-8.7,28.82,NE,56,0.0,0.0,43,0.00,CLR,OVC,0.00,WeatherDisplay:10.37,2013-03-08 06:01:00,
2013-03-08 01:06:00,9.5,-8.5,28.82,NE,56,0.0,0.0,43,0.00,CLR,OVC,0.00,WeatherDisplay:10.37,2013-03-08 06:06:00,
2013-03-08 01:11:00,10.0,-8.0,28.82,NE,56,0.0,0.0,43,0.00,CLR,OVC,0.00,WeatherDisplay:10.37,2013-03-08 06:11:00,
2013-03-08 01:16:00,10.2,-7.9,28.82,NE,56,0.0,0.0,43,0.00,CLR,OVC,0.00,WeatherDisplay:10.37,2013-03-08 06:16:00,
2013-03-08 01:21:00,10.6,-7.6,28.82,NE,56,0.0,0.0,43,0.00,CLR,OVC,0.00,WeatherDisplay:10.37,2013-03-08 06:21:00,
2013-03-08 01:26:00,10.9,-7.2,28.82,NE,56,0.0,0.0,43,0.00,CLR,OVC,0.00,WeatherDisplay:10.37,2013-03-08 06:26:00,
2013-03-08 01:31:00,11.1,-7.1,28.82,NE,56,0.0,0.0,43,0.00,CLR,OVC,0.00,WeatherDisplay:10.37,2013-03-08 06:31:00,
2013-03-08 01:36:00,11.3,-6.9,28.82,NE,56,0.0,0.0,43,0.00,CLR,OVC,0.00,WeatherDisplay:10.37,2013-03-08 06:36:00,
2013-03-08 01:41:00,11.5,-6.7,28.82,NE,56,0.0,0.0,43,0.00,CLR,OVC,0.00,WeatherDisplay:10.37,2013-03-08 06:41:00,
2013-03-08 01:46:00,11.7,-6.6,28.82,NE,56,0.0,0.0,43,0.00,CLR,OVC,0.00,WeatherDisplay:10.37,2013-03-08 06:46:00,
2013-03-08 01:51:00,11.7,-6.6,28.82,NE,56,0.0,0.0,43,0.00,CLR,OVC,0.00,WeatherDisplay:10.37,2013-03-08 06:51:00,
2013-03-08 01:56:00,11.8,-6.4,28.82,NE,56,0.0,0.0,43,0.00,CLR,OVC,0.00,WeatherDisplay:10.37,2013-03-08 06:56:00,
2013-03-08 02:01:00,11.8,-6.4,28.82,NE,56,0.0,0.0,43,0.00,CLR,OVC,0.00,WeatherDisplay:10.37,2013-03-08 07:01:00,
2013-03-08 02:06:00,11.8,-6.4,28.82,NE,56,0.0,0.0,43,0.00,CLR,OVC,0.00,WeatherDisplay:10.37,2013-03-08 07:06:00,
2013-03-08 02:11:00,11.8,-6.4,28.82,NE,56,0.0,0.0,43,0.00,CLR,OVC,0.00,WeatherDisplay:10.37,2013-03-08 07:11:00,
2013-03-08 02:16:00,12.0,-6.2,28.82,NE,56,0.0,0.0,43,0.00,CLR,OVC,0.00,WeatherDisplay:10.37,2013-03-08 07:16:00,
2013-03-08 02:21:00,12.0,-6.2,28.82,NE,56,0.0,0.0,43,0.00,CLR,OVC,0.00,WeatherDisplay:10.37,2013-03-08 07:21:00,
2013-03-08 02:26:00,12.0,-6.2,28.82,NE,56,0.0,0.0,43,0.00,CLR,OVC,0.00,WeatherDisplay:10.37,2013-03-08 07:26:00,
2013-03-08 02:31:00,11.7,-6.6,28.82,NE,56,0.0,0.0,43,0.00,CLR,OVC,0.00,WeatherDisplay:10.37,2013-03-08 07:31:00,
2013-03-08 02:36:00,11.3,-6.9,28.82,NE,56,0.0,0.0,43,0.00,CLR,OVC,0.00,WeatherDisplay:10.37,2013-03-08 07:36:00,
2013-03-08 02:41:00,11.7,-6.6,28.82,East,95,0.0,0.0,43,0.00,CLR,OVC,0.00,WeatherDisplay:10.37,2013-03-08 07:41:00,
2013-03-08 02:46:00,11.5,-6.7,28.82,East,95,0.0,0.0,43,0.00,CLR,OVC,0.00,WeatherDisplay:10.37,2013-03-08 07:46:00,
2013-03-08 02:51:00,10.8,-7.4,28.82,East,95,0.0,0.0,43,0.00,CLR,OVC,0.00,WeatherDisplay:10.37,2013-03-08 07:51:00,
2013-03-08 02:56:00,9.9,-8.2,28.82,East,95,0.0,0.0,43,0.00,CLR,OVC,0.00,WeatherDisplay:10.37,2013-03-08 07:56:00,
2013-03-08 03:01:00,8.8,-9.2,28.82,East,95,0.0,0.0,43,0.00,CLR,OVC,0.00,WeatherDisplay:10.37,2013-03-08 08:01:00,
2013-03-08 03:06:00,8.2,-9.7,28.82,East,95,0.0,0.0,43,0.00,CLR,OVC,0.00,WeatherDisplay:10.37,2013-03-08 08:06:00,
2013-03-08 03:11:00,7.5,-10.4,28.82,East,95,0.0,0.0,43,0.00,CLR,OVC,0.00,WeatherDisplay:10.37,2013-03-08 08:11:00,
2013-03-08 03:16:00,7.0,-10.8,28.82,East,95,0.0,0.0,43,0.00,CLR,OVC,0.00,WeatherDisplay:10.37,2013-03-08 08:16:00,
2013-03-08 03:21:00,6.6,-11.2,28.82,East,95,0.0,0.0,43,0.00,CLR,OVC,0.00,WeatherDisplay:10.37,2013-03-08 08:21:00,
2013-03-08 03:26:00,6.1,-11.7,28.82,East,95,0.0,0.0,43,0.00,CLR,OVC,0.00,WeatherDisplay:10.37,2013-03-08 08:26:00,
2013-03-08 03:31:00,5.9,-11.8,28.82,East,95,0.0,0.0,43,0.00,CLR,OVC,0.00,WeatherDisplay:10.37,2013-03-08 08:31:00,
2013-03-08 03:36:00,5.5,-12.2,28.82,East,95,0.0,0.0,43,0.00,CLR,OVC,0.00,WeatherDisplay:10.37,2013-03-08 08:36:00,
2013-03-08 03:41:00,5.4,-12.3,28.82,East,95,0.0,0.0,43,0.00,CLR,OVC,0.00,WeatherDisplay:10.37,2013-03-08 08:41:00,
2013-03-08 03:46:00,5.0,-12.7,28.82,East,95,0.0,0.0,43,0.00,CLR,OVC,0.00,WeatherDisplay:10.37,2013-03-08 08:46:00,
2013-03-08 03:51:00,4.6,-13.0,28.82,East,95,0.0,0.0,43,0.00,CLR,OVC,0.00,WeatherDisplay:10.37,2013-03-08 08:51:00,
2013-03-08 03:56:00,4.5,-13.2,28.82,East,95,0.0,0.0,43,0.00,CLR,OVC,0.00,WeatherDisplay:10.37,2013-03-08 08:56:00,
2013-03-08 04:01:00,4.1,-13.5,28.82,East,95,0.0,0.0,43,0.00,CLR,OVC,0.00,WeatherDisplay:10.37,2013-03-08 09:01:00,
2013-03-08 04:06:00,3.9,-13.6,28.82,East,95,0.0,0.0,43,0.00,CLR,OVC,0.00,WeatherDisplay:10.37,2013-03-08 09:06:00,
2013-03-08 04:11:00,3.7,-13.8,28.82,East,95,0.0,0.0,43,0.00,CLR,OVC,0.00,WeatherDisplay:10.37,2013-03-08 09:11:00,
2013-03-08 04:16:00,3.6,-14.0,28.82,East,95,0.0,0.0,43,0.00,CLR,OVC,0.00,WeatherDisplay:10.37,2013-03-08 09:16:00,
2013-03-08 04:21:00,3.0,-14.5,28.82,East,95,0.0,0.0,43,0.00,CLR,OVC,0.00,WeatherDisplay:10.37,2013-03-08 09:21:00,
2013-03-08 04:26:00,2.7,-14.8,28.82,East,95,0.0,0.0,43,0.00,CLR,OVC,0.00,WeatherDisplay:10.37,2013-03-08 09:26:00,
2013-03-08 04:31:00,2.3,-15.1,28.82,East,95,0.0,0.0,43,0.00,CLR,OVC,0.00,WeatherDisplay:10.37,2013-03-08 09:31:00,
2013-03-08 04:36:00,1.9,-15.5,28.82,East,95,0.0,0.0,43,0.00,CLR,OVC,0.00,WeatherDisplay:10.37,2013-03-08 09:36:00,
2013-03-08 04:41:00,1.8,-15.6,28.82,East,95,0.0,0.0,43,0.00,CLR,OVC,0.00,WeatherDisplay:10.37,2013-03-08 09:41:00,
2013-03-08 04:46:00,1.4,-16.0,28.82,East,95,0.0,0.0,43,0.00,CLR,OVC,0.00,WeatherDisplay:10.37,2013-03-08 09:46:00,
2013-03-08 04:51:00,1.0,-16.3,28.82,East,95,0.0,0.0,43,0.00,CLR,OVC,0.00,WeatherDisplay:10.37,2013-03-08 09:51:00,
2013-03-08 04:56:00,0.9,-16.5,28.82,East,95,0.0,0.0,43,0.00,CLR,OVC,0.00,WeatherDisplay:10.37,2013-03-08 09:56:00,
2013-03-08 05:01:00,0.7,-16.6,28.82,East,95,0.0,0.0,43,0.00,CLR,OVC,0.00,WeatherDisplay:10.37,2013-03-08 10:01:00,
2013-03-08 05:06:00,0.5,-16.8,28.82,East,95,0.0,0.0,43,0.00,CLR,OVC,0.00,WeatherDisplay:10.37,2013-03-08 10:06:00,
2013-03-08 05:11:00,0.3,-16.9,28.82,East,95,0.0,0.0,43,0.00,CLR,OVC,0.00,WeatherDisplay:10.37,2013-03-08 10:11:00,
2013-03-08 05:16:00,0.3,-16.9,28.82,East,95,0.0,0.0,43,0.00,CLR,OVC,0.00,WeatherDisplay:10.37,2013-03-08 10:16:00,
2013-03-08 05:21:00,0.0,-17.3,28.82,East,95,0.0,0.0,43,0.00,CLR,OVC,0.00,WeatherDisplay:10.37,2013-03-08 10:21:00,
2013-03-08 05:26:00,-0.2,-17.4,28.82,East,95,0.0,0.0,43,0.00,CLR,OVC,0.00,WeatherDisplay:10.37,2013-03-08 10:26:00,
2013-03-08 05:31:00,-0.2,-17.4,28.82,East,95,0.0,0.0,43,0.00,CLR,OVC,0.00,WeatherDisplay:10.37,2013-03-08 10:31:00,
2013-03-08 05:36:00,0.0,-17.3,28.82,East,95,0.0,0.0,43,0.00,CLR,OVC,0.00,WeatherDisplay:10.37,2013-03-08 10:36:00,
2013-03-08 05:41:00,-0.2,-17.4,28.82,East,95,0.0,0.0,43,0.00,CLR,OVC,0.00,WeatherDisplay:10.37,2013-03-08 10:41:00,
2013-03-08 05:46:00,-0.2,-17.4,28.82,East,95,0.0,0.0,43,0.00,CLR,OVC,0.00,WeatherDisplay:10.37,2013-03-08 10:46:00,
2013-03-08 05:51:00,-0.4,-17.6,28.82,East,95,0.0,0.0,43,0.00,CLR,OVC,0.00,WeatherDisplay:10.37,2013-03-08 10:51:00,
2013-03-08 05:56:00,-0.2,-17.4,28.82,East,95,0.0,0.0,43,0.00,CLR,OVC,0.00,WeatherDisplay:10.37,2013-03-08 10:56:00,
2013-03-08 06:01:00,-0.2,-17.4,28.82,East,95,0.0,0.0,43,0.00,CLR,OVC,0.00,WeatherDisplay:10.37,2013-03-08 11:01:00,
2013-03-08 06:06:00,-0.2,-17.4,28.82,East,95,0.0,0.0,43,0.00,CLR,OVC,0.00,WeatherDisplay:10.37,2013-03-08 11:06:00,
2013-03-08 06:11:00,-0.2,-17.4,28.82,East,95,0.0,0.0,43,0.00,CLR,OVC,0.00,WeatherDisplay:10.37,2013-03-08 11:11:00,
2013-03-08 06:16:00,-0.2,-17.4,28.82,East,95,0.0,0.0,43,0.00,CLR,OVC,0.00,WeatherDisplay:10.37,2013-03-08 11:16:00,
2013-03-08 06:21:00,-0.2,-17.4,28.85,East,95,0.0,0.0,43,0.00,CLR,OVC,0.00,WeatherDisplay:10.37,2013-03-08 11:21:00,
2013-03-08 06:26:00,0.0,-17.3,28.85,East,95,0.0,0.0,43,0.00,CLR,OVC,0.00,WeatherDisplay:10.37,2013-03-08 11:26:00,
2013-03-08 06:31:00,0.1,-17.1,28.85,East,95,0.0,0.0,43,0.00,CLR,OVC,0.00,WeatherDisplay:10.37,2013-03-08 11:31:00,
2013-03-08 06:36:00,0.0,-17.3,28.82,East,95,0.0,0.0,43,0.00,CLR,OVC,0.00,WeatherDisplay:10.37,2013-03-08 11:36:00,
2013-03-08 06:41:00,-0.2,-17.4,28.82,East,95,0.0,0.0,43,0.00,CLR,OVC,0.00,WeatherDisplay:10.37,2013-03-08 11:41:00,
2013-03-08 06:46:00,-0.2,-17.4,28.82,East,95,0.0,0.0,43,0.00,CLR,OVC,0.00,WeatherDisplay:10.37,2013-03-08 11:46:00,
2013-03-08 06:51:00,-0.4,-17.6,28.82,East,95,0.0,0.0,43,0.00,CLR,OVC,0.00,WeatherDisplay:10.37,2013-03-08 11:51:00,
2013-03-08 06:56:00,-0.4,-17.6,28.82,East,95,0.0,0.0,43,0.00,CLR,OVC,0.00,WeatherDisplay:10.37,2013-03-08 11:56:00,
2013-03-08 07:01:00,-0.4,-17.6,28.82,East,95,0.0,0.0,43,0.00,CLR,OVC,0.00,WeatherDisplay:10.37,2013-03-08 12:01:00,
2013-03-08 07:06:00,-0.6,-17.8,28.85,East,95,0.0,0.0,43,0.00,CLR,OVC,0.00,WeatherDisplay:10.37,2013-03-08 12:06:00,
2013-03-08 07:11:00,-0.8,-17.9,28.85,East,95,0.0,0.0,43,0.00,CLR,OVC,0.00,WeatherDisplay:10.37,2013-03-08 12:11:00,
2013-03-08 07:16:00,-0.9,-18.1,28.82,East,95,0.0,0.0,43,0.00,CLR,OVC,0.00,WeatherDisplay:10.37,2013-03-08 12:16:00,
2013-03-08 07:21:00,-0.9,-18.1,28.82,East,95,0.0,0.0,43,0.00,CLR,OVC,0.00,WeatherDisplay:10.37,2013-03-08 12:21:00,
2013-03-08 07:26:00,-0.8,-17.9,28.82,East,95,0.0,0.0,43,0.00,CLR,OVC,0.00,WeatherDisplay:10.37,2013-03-08 12:26:00,
2013-03-08 07:31:00,-0.6,-17.8,28.82,East,95,0.0,0.0,43,0.00,CLR,OVC,0.00,WeatherDisplay:10.37,2013-03-08 12:31:00,
2013-03-08 07:36:00,-0.2,-17.4,28.82,East,95,0.0,0.0,43,0.00,CLR,OVC,0.00,WeatherDisplay:10.37,2013-03-08 12:36:00,
2013-03-08 07:41:00,0.3,-16.9,28.82,East,95,0.0,0.0,43,0.00,CLR,OVC,0.00,WeatherDisplay:10.37,2013-03-08 12:41:00,
2013-03-08 07:46:00,1.0,-16.3,28.82,East,95,0.0,0.0,43,0.00,CLR,OVC,0.00,WeatherDisplay:10.37,2013-03-08 12:46:00,
2013-03-08 07:51:00,1.6,-15.8,28.82,East,95,0.0,0.0,43,0.00,CLR,OVC,0.00,WeatherDisplay:10.37,2013-03-08 12:51:00,
2013-03-08 07:56:00,2.5,-15.0,28.82,East,95,0.0,0.0,43,0.00,CLR,OVC,0.00,WeatherDisplay:10.37,2013-03-08 12:56:00,
2013-03-08 08:01:00,3.2,-14.3,28.82,East,95,0.0,0.0,43,0.00,CLR,OVC,0.00,WeatherDisplay:10.37,2013-03-08 13:01:00,
2013-03-08 08:06:00,4.1,-13.5,28.82,East,95,0.0,0.0,43,0.00,CLR,OVC,0.00,WeatherDisplay:10.37,2013-03-08 13:06:00,
2013-03-08 08:11:00,4.6,-13.0,28.82,East,95,0.0,0.0,43,0.00,CLR,OVC,0.00,WeatherDisplay:10.37,2013-03-08 13:11:00,
2013-03-08 08:16:00,5.7,-12.0,28.82,East,95,0.0,0.0,43,0.00,CLR,OVC,0.00,WeatherDisplay:10.37,2013-03-08 13:16:00,
2013-03-08 08:21:00,6.6,-11.2,28.82,East,95,0.0,0.0,43,0.00,CLR,OVC,0.00,WeatherDisplay:10.37,2013-03-08 13:21:00,
2013-03-08 08:26:00,7.0,-10.8,28.82,East,95,0.0,0.0,43,0.00,CLR,OVC,0.00,WeatherDisplay:10.37,2013-03-08 13:26:00,
2013-03-08 08:31:00,7.9,-10.0,28.82,East,95,0.0,0.0,43,0.00,CLR,OVC,0.00,WeatherDisplay:10.37,2013-03-08 13:31:00,
2013-03-08 08:36:00,8.8,-9.2,28.82,SSW,204,0.0,3.5,43,0.00,CLR,OVC,0.00,WeatherDisplay:10.37,2013-03-08 13:36:00,
2013-03-08 08:41:00,10.0,-8.0,28.82,South,190,2.7,3.5,43,0.00,CLR,OVC,0.00,WeatherDisplay:10.37,2013-03-08 13:41:00,
2013-03-08 08:46:00,11.5,-6.7,28.82,South,191,0.0,3.5,43,0.00,CLR,OVC,0.00,WeatherDisplay:10.37,2013-03-08 13:46:00,
2013-03-08 08:51:00,12.9,-5.4,28.82,South,171,3.1,4.9,43,0.00,CLR,OVC,0.00,WeatherDisplay:10.37,2013-03-08 13:51:00,
2013-03-08 08:56:00,14.9,3.9,28.82,South,181,2.7,3.5,61,0.00,CLR,OVC,0.00,WeatherDisplay:10.37,2013-03-08 13:56:00,
2013-03-08 09:01:00,16.9,5.4,28.82,South,185,2.7,3.5,60,0.00,CLR,OVC,0.00,WeatherDisplay:10.37,2013-03-08 14:01:00,
2013-03-08 09:06:00,18.5,5.4,28.79,SSE,155,2.7,3.5,56,0.00,CLR,OVC,0.00,WeatherDisplay:10.37,2013-03-08 14:06:00,
2013-03-08 09:11:00,19.4,3.8,28.79,SSW,192,4.0,5.8,50,0.00,CLR,OVC,0.00,WeatherDisplay:10.37,2013-03-08 14:11:00,
2013-03-08 09:16:00,20.3,3.2,28.79,South,185,2.7,3.5,47,0.00,CLR,OVC,0.00,WeatherDisplay:10.37,2013-03-08 14:16:00,
2013-03-08 09:21:00,20.5,2.0,28.82,SSW,203,4.5,8.1,44,0.00,CLR,OVC,0.00,WeatherDisplay:10.37,2013-03-08 14:21:00,
2013-03-08 09:26:00,21.0,2.5,28.82,SSW,212,4.5,5.8,44,0.00,CLR,OVC,0.00,WeatherDisplay:10.37,2013-03-08 14:26:00,
2013-03-08 09:31:00,21.4,2.3,28.82,South,171,5.8,8.1,43,0.00,CLR,OVC,0.00,WeatherDisplay:10.37,2013-03-08 14:31:00,
2013-03-08 09:36:00,22.3,3.1,28.82,South,190,3.1,4.6,43,0.00,CLR,OVC,0.00,WeatherDisplay:10.37,2013-03-08 14:36:00,
2013-03-08 09:41:00,23.7,3.9,28.82,South,182,7.2,8.1,42,0.00,CLR,OVC,0.00,WeatherDisplay:10.37,2013-03-08 14:41:00,
2013-03-08 09:46:00,24.8,4.4,28.82,South,172,0.0,3.5,41,0.00,CLR,OVC,0.00,WeatherDisplay:10.37,2013-03-08 14:46:00,
2013-03-08 09:51:00,25.5,2.8,28.82,SSE,167,3.6,4.6,37,0.00,CLR,OVC,0.00,WeatherDisplay:10.37,2013-03-08 14:51:00,
2013-03-08 09:56:00,24.1,1.5,28.82,SSE,167,6.7,10.4,37,0.00,CLR,OVC,0.00,WeatherDisplay:10.37,2013-03-08 14:56:00,
2013-03-08 10:01:00,24.4,3.0,28.82,SSW,212,5.8,6.9,39,0.00,CLR,OVC,0.00,WeatherDisplay:10.37,2013-03-08 15:01:00,
2013-03-08 10:06:00,25.9,3.7,28.82,South,183,5.4,5.8,38,0.00,CLR,OVC,0.00,WeatherDisplay:10.37,2013-03-08 15:06:00,
2013-03-08 10:11:00,26.6,2.6,28.82,SSE,155,4.5,4.6,35,0.00,CLR,OVC,0.00,WeatherDisplay:10.37,2013-03-08 15:11:00,
2013-03-08 10:16:00,26.4,2.4,28.82,South,172,9.2,11.5,35,0.00,CLR,OVC,0.00,WeatherDisplay:10.37,2013-03-08 15:16:00,
2013-03-08 10:21:00,27.3,3.2,28.82,SSW,199,5.8,8.0,35,0.00,CLR,OVC,0.00,WeatherDisplay:10.37,2013-03-08 15:21:00,
2013-03-08 10:26:00,28.4,3.6,28.82,SW,227,3.1,4.9,34,0.00,CLR,OVC,0.00,WeatherDisplay:10.37,2013-03-08 15:26:00,
2013-03-08 10:31:00,28.8,3.2,28.82,SW,215,5.8,8.1,33,0.00,CLR,OVC,0.00,WeatherDisplay:10.37,2013-03-08 15:31:00,
2013-03-08 10:36:00,29.5,3.2,28.82,South,180,5.8,5.8,32,0.00,CLR,OVC,0.00,WeatherDisplay:10.37,2013-03-08 15:36:00,
2013-03-08 10:41:00,29.8,3.5,28.82,SSW,198,4.0,5.8,32,0.00,CLR,OVC,0.00,WeatherDisplay:10.37,2013-03-08 15:41:00,
2013-03-08 10:46:00,29.1,2.9,28.82,SSE,158,7.6,10.4,32,0.00,CLR,OVC,0.00,WeatherDisplay:10.37,2013-03-08 15:46:00,
2013-03-08 10:51:00,29.1,2.9,28.82,SSW,192,10.5,13.8,32,0.00,CLR,OVC,0.00,WeatherDisplay:10.37,2013-03-08 15:51:00,
2013-03-08 10:56:00,29.1,2.9,28.82,SSW,207,8.7,12.7,32,0.00,CLR,OVC,0.00,WeatherDisplay:10.37,2013-03-08 15:56:00,
2013-03-08 11:01:00,29.7,2.7,28.82,South,170,8.7,11.5,31,0.00,CLR,OVC,0.00,WeatherDisplay:10.37,2013-03-08 16:01:00,
2013-03-08 11:06:00,30.4,3.3,28.82,SSW,204,8.0,10.4,31,0.00,CLR,OVC,0.00,WeatherDisplay:10.37,2013-03-08 16:06:00,
2013-03-08 11:11:00,30.2,3.1,28.82,SSW,206,7.2,10.4,31,0.00,CLR,OVC,0.00,WeatherDisplay:10.37,2013-03-08 16:11:00,
2013-03-08 11:16:00,30.4,3.3,28.82,South,185,7.6,9.2,31,0.00,CLR,OVC,0.00,WeatherDisplay:10.37,2013-03-08 16:16:00,
2013-03-08 11:21:00,30.0,3.0,28.79,South,180,4.0,5.8,31,0.00,CLR,OVC,0.00,WeatherDisplay:10.37,2013-03-08 16:21:00,
2013-03-08 11:26:00,31.6,4.4,28.79,South,173,7.6,10.4,31,0.00,CLR,OVC,0.00,WeatherDisplay:10.37,2013-03-08 16:26:00,
2013-03-08 11:31:00,31.6,4.4,28.79,SSW,197,6.3,8.1,31,0.00,CLR,OVC,0.00,WeatherDisplay:10.37,2013-03-08 16:31:00,
2013-03-08 11:36:00,31.5,4.3,28.79,South,179,9.2,10.4,31,0.00,CLR,OVC,0.00,WeatherDisplay:10.37,2013-03-08 16:36:00,
2013-03-08 11:41:00,31.8,4.6,28.79,SW,222,6.7,10.4,31,0.00,CLR,OVC,0.00,WeatherDisplay:10.37,2013-03-08 16:41:00,
2013-03-08 11:46:00,31.5,4.3,28.79,South,169,6.3,9.2,31,0.00,CLR,OVC,0.00,WeatherDisplay:10.37,2013-03-08 16:46:00,
2013-03-08 11:51:00,31.1,3.2,28.79,SSE,168,6.3,8.1,30,0.00,CLR,OVC,0.00,WeatherDisplay:10.37,2013-03-08 16:51:00,
2013-03-08 11:56:00,32.0,4.0,28.79,SSW,197,8.7,11.5,30,0.00,CLR,OVC,0.00,WeatherDisplay:10.37,2013-03-08 16:56:00,
2013-03-08 12:01:00,32.4,4.3,28.79,SW,228,7.2,7.2,30,0.00,CLR,OVC,0.00,WeatherDisplay:10.37,2013-03-08 17:01:00,
2013-03-08 12:06:00,32.7,4.6,28.79,South,174,4.5,8.1,30,0.00,CLR,OVC,0.00,WeatherDisplay:10.37,2013-03-08 17:06:00,
2013-03-08 12:11:00,32.9,4.8,28.79,SSW,192,8.7,11.5,30,0.00,CLR,OVC,0.00,WeatherDisplay:10.37,2013-03-08 17:11:00,
2013-03-08 12:16:00,32.2,4.2,28.79,SSE,148,7.6,12.7,30,0.00,CLR,OVC,0.00,WeatherDisplay:10.37,2013-03-08 17:16:00,
2013-03-08 12:21:00,33.1,5.0,28.79,SW,231,8.3,11.5,30,0.00,CLR,OVC,0.00,WeatherDisplay:10.37,2013-03-08 17:21:00,
2013-03-08 12:26:00,32.0,4.0,28.79,South,189,5.4,8.1,30,0.00,CLR,OVC,0.00,WeatherDisplay:10.37,2013-03-08 17:26:00,
2013-03-08 12:31:00,33.1,5.0,28.79,SSE,159,6.3,11.5,30,0.00,CLR,OVC,0.00,WeatherDisplay:10.37,2013-03-08 17:31:00,
2013-03-08 12:36:00,32.7,3.1,28.76,South,191,8.7,11.5,28,0.00,CLR,OVC,0.00,WeatherDisplay:10.37,2013-03-08 17:36:00,
2013-03-08 12:41:00,33.1,5.0,28.76,SSW,195,2.7,8.0,30,0.00,CLR,OVC,0.00,WeatherDisplay:10.37,2013-03-08 17:41:00,
2013-03-08 12:46:00,31.3,1.9,28.76,SE,142,8.0,9.2,28,0.00,CLR,OVC,0.00,WeatherDisplay:10.37,2013-03-08 17:46:00,
2013-03-08 12:51:00,32.5,3.0,28.76,SSE,161,8.0,8.1,28,0.00,CLR,OVC,0.00,WeatherDisplay:10.37,2013-03-08 17:51:00,
2013-03-08 12:56:00,32.7,3.1,28.76,SSE,160,4.5,8.1,28,0.00,CLR,OVC,0.00,WeatherDisplay:10.37,2013-03-08 17:56:00,
2013-03-08 13:01:00,32.9,2.5,28.76,SSE,154,6.3,8.1,27,0.00,CLR,OVC,0.00,WeatherDisplay:10.37,2013-03-08 18:01:00,
2013-03-08 13:07:00,34.3,3.8,28.76,SSE,147,6.7,10.4,27,0.00,CLR,OVC,0.00,WeatherDisplay:10.37,2013-03-08 18:07:00,
2013-03-08 13:12:00,34.0,3.4,28.76,SSE,155,6.7,9.2,27,0.00,CLR,OVC,0.00,WeatherDisplay:10.37,2013-03-08 18:12:00,
2013-03-08 13:17:00,35.1,4.4,28.76,SSE,153,5.8,9.2,27,0.00,CLR,OVC,0.00,WeatherDisplay:10.37,2013-03-08 18:17:00,
2013-03-08 13:22:00,36.5,4.8,28.76,South,172,4.5,5.8,26,0.00,CLR,OVC,0.00,WeatherDisplay:10.37,2013-03-08 18:22:00,
2013-03-08 13:27:00,36.9,3.4,28.76,South,172,7.2,9.2,24,0.00,CLR,OVC,0.00,WeatherDisplay:10.37,2013-03-08 18:27:00,
2013-03-08 13:32:00,34.7,1.5,28.76,East,92,7.6,11.5,24,0.00,CLR,OVC,0.00,WeatherDisplay:10.37,2013-03-08 18:32:00,
2013-03-08 13:37:00,35.6,2.3,28.76,SSE,158,7.6,7.6,24,0.00,CLR,OVC,0.00,WeatherDisplay:10.37,2013-03-08 18:37:00,
2013-03-08 13:42:00,35.4,2.1,28.76,South,179,6.3,8.7,24,0.00,CLR,OVC,0.00,WeatherDisplay:10.37,2013-03-08 18:42:00,
2013-03-08 13:47:00,36.0,2.6,28.76,SSE,168,8.7,11.5,24,0.00,CLR,OVC,0.00,WeatherDisplay:10.37,2013-03-08 18:47:00,
2013-03-08 13:52:00,36.7,3.2,28.73,SSW,210,6.7,11.5,24,0.00,CLR,OVC,0.00,WeatherDisplay:10.37,2013-03-08 18:52:00,
2013-03-08 13:57:00,37.9,4.3,28.73,SSE,155,4.5,9.2,24,0.00,CLR,OVC,0.00,WeatherDisplay:10.37,2013-03-08 18:57:00,
2013-03-08 14:02:00,38.5,3.8,28.73,SSE,163,7.6,11.5,23,0.00,CLR,OVC,0.00,WeatherDisplay:10.37,2013-03-08 19:02:00,
2013-03-08 14:07:00,38.3,1.7,28.73,SSW,202,8.7,12.7,21,0.00,CLR,OVC,0.00,WeatherDisplay:10.37,2013-03-08 19:07:00,
2013-03-08 14:12:00,38.5,1.9,28.73,SSW,212,5.8,7.6,21,0.00,CLR,OVC,0.00,WeatherDisplay:10.37,2013-03-08 19:12:00,
2013-03-08 14:17:00,38.5,1.9,28.73,SW,214,6.7,10.4,21,0.00,CLR,OVC,0.00,WeatherDisplay:10.37,2013-03-08 19:17:00,
2013-03-08 14:22:00,38.7,2.0,28.73,South,175,7.2,10.4,21,0.00,CLR,OVC,0.00,WeatherDisplay:10.37,2013-03-08 19:22:00,
2013-03-08 14:27:00,39.0,2.3,28.73,South,191,4.9,8.1,21,0.00,CLR,OVC,0.00,WeatherDisplay:10.37,2013-03-08 19:27:00,
2013-03-08 14:32:00,37.9,1.4,28.73,SSW,208,8.0,10.4,21,0.00,CLR,OVC,0.00,WeatherDisplay:10.37,2013-03-08 19:32:00,
2013-03-08 14:37:00,38.1,1.6,28.73,SSE,159,8.3,11.5,21,0.00,CLR,OVC,0.00,WeatherDisplay:10.37,2013-03-08 19:37:00,
2013-03-08 14:42:00,38.1,1.6,28.73,SSE,159,9.6,12.7,21,0.00,CLR,OVC,0.00,WeatherDisplay:10.37,2013-03-08 19:42:00,
2013-03-08 14:47:00,37.9,1.4,28.73,South,176,6.7,8.1,21,0.00,CLR,OVC,0.00,WeatherDisplay:10.37,2013-03-08 19:47:00,
2013-03-08 14:52:00,38.8,2.2,28.73,SSW,202,9.2,12.7,21,0.00,CLR,OVC,0.00,WeatherDisplay:10.37,2013-03-08 19:52:00,
2013-03-08 14:57:00,38.5,1.9,28.73,SSW,201,6.7,11.5,21,0.00,CLR,OVC,0.00,WeatherDisplay:10.37,2013-03-08 19:57:00,
2013-03-08 15:02:00,38.8,2.2,28.73,SSE,168,8.7,12.7,21,0.00,CLR,OVC,0.00,WeatherDisplay:10.37,2013-03-08 20:02:00,
2013-03-08 15:07:00,38.5,1.9,28.73,SSW,211,8.7,12.7,21,0.00,CLR,OVC,0.00,WeatherDisplay:10.37,2013-03-08 20:07:00,
2013-03-08 15:12:00,38.7,2.0,28.73,South,185,9.6,11.5,21,0.00,CLR,OVC,0.00,WeatherDisplay:10.37,2013-03-08 20:12:00,
2013-03-08 15:17:00,38.3,1.7,28.73,South,185,8.3,13.8,21,0.00,CLR,OVC,0.00,WeatherDisplay:10.37,2013-03-08 20:17:00,
2013-03-08 15:22:00,38.8,2.2,28.73,South,186,8.7,11.5,21,0.00,CLR,OVC,0.00,WeatherDisplay:10.37,2013-03-08 20:22:00,
2013-03-08 15:27:00,38.7,2.0,28.73,South,171,9.6,12.7,21,0.00,CLR,OVC,0.00,WeatherDisplay:10.37,2013-03-08 20:27:00,
2013-03-08 15:32:00,39.7,2.9,28.73,West,259,5.4,5.8,21,0.00,CLR,OVC,0.00,WeatherDisplay:10.37,2013-03-08 20:32:00,
2013-03-08 15:37:00,39.9,3.1,28.73,South,174,3.6,5.8,21,0.00,CLR,OVC,0.00,WeatherDisplay:10.37,2013-03-08 20:37:00,
2013-03-08 15:42:00,38.8,2.2,28.73,SSW,192,6.7,10.4,21,0.00,CLR,OVC,0.00,WeatherDisplay:10.37,2013-03-08 20:42:00,
2013-03-08 15:47:00,38.1,1.6,28.73,South,172,8.0,9.2,21,0.00,CLR,OVC,0.00,WeatherDisplay:10.37,2013-03-08 20:47:00,
2013-03-08 15:52:00,37.8,1.2,28.70,South,188,9.2,11.5,21,0.00,CLR,OVC,0.00,WeatherDisplay:10.37,2013-03-08 20:52:00,
2013-03-08 15:57:00,37.8,1.2,28.70,SSW,211,7.2,11.5,21,0.00,CLR,OVC,0.00,WeatherDisplay:10.37,2013-03-08 20:57:00,
2013-03-08 16:02:00,37.8,1.2,28.70,South,171,10.5,12.7,21,0.00,CLR,OVC,0.00,WeatherDisplay:10.37,2013-03-08 21:02:00,
2013-03-08 16:07:00,37.6,1.1,28.70,SSW,200,7.6,8.3,21,0.00,CLR,OVC,0.00,WeatherDisplay:10.37,2013-03-08 21:07:00,
2013-03-08 16:12:00,37.2,0.8,28.70,SSE,160,7.6,10.4,21,0.00,CLR,OVC,0.00,WeatherDisplay:10.37,2013-03-08 21:12:00,
2013-03-08 16:17:00,37.2,0.8,28.70,South,170,7.6,7.6,21,0.00,CLR,OVC,0.00,WeatherDisplay:10.37,2013-03-08 21:17:00,
2013-03-08 16:22:00,37.4,0.9,28.70,SSE,168,7.6,12.3,21,0.00,CLR,OVC,0.00,WeatherDisplay:10.37,2013-03-08 21:22:00,
2013-03-08 16:27:00,37.4,0.9,28.70,South,170,6.3,6.3,21,0.00,CLR,OVC,0.00,WeatherDisplay:10.37,2013-03-08 21:27:00,
2013-03-08 16:32:00,36.7,0.3,28.70,SSE,162,8.7,11.5,21,0.00,CLR,OVC,0.00,WeatherDisplay:10.37,2013-03-08 21:32:00,
2013-03-08 16:37:00,36.7,0.3,28.70,South,180,5.8,8.1,21,0.00,CLR,OVC,0.00,WeatherDisplay:10.37,2013-03-08 21:37:00,
2013-03-08 16:42:00,36.5,0.2,28.70,South,191,6.3,8.1,21,0.00,CLR,OVC,0.00,WeatherDisplay:10.37,2013-03-08 21:42:00,
2013-03-08 16:47:00,36.7,0.3,28.70,SE,135,5.4,8.1,21,0.00,CLR,OVC,0.00,WeatherDisplay:10.37,2013-03-08 21:47:00,
2013-03-08 16:52:00,36.7,0.3,28.70,SW,220,6.3,8.1,21,0.00,CLR,OVC,0.00,WeatherDisplay:10.37,2013-03-08 21:52:00,
2013-03-08 16:57:00,36.9,0.5,28.70,SSE,153,4.9,15.0,21,0.00,CLR,OVC,0.00,WeatherDisplay:10.37,2013-03-08 21:57:00,
2013-03-08 17:02:00,36.9,0.5,28.70,SSE,161,5.8,8.1,21,0.00,CLR,OVC,0.00,WeatherDisplay:10.37,2013-03-08 22:02:00,
2013-03-08 17:07:00,36.7,0.3,28.70,South,190,6.3,7.6,21,0.00,CLR,OVC,0.00,WeatherDisplay:10.37,2013-03-08 22:07:00,
2013-03-08 17:12:00,36.7,0.3,28.70,SW,231,4.5,9.2,21,0.00,CLR,OVC,0.00,WeatherDisplay:10.37,2013-03-08 22:12:00,
2013-03-08 17:17:00,36.5,0.2,28.70,SSW,205,5.4,9.2,21,0.00,CLR,OVC,0.00,WeatherDisplay:10.37,2013-03-08 22:17:00,
2013-03-08 17:22:00,36.5,0.2,28.67,West,271,6.7,8.1,21,0.00,CLR,OVC,0.00,WeatherDisplay:10.37,2013-03-08 22:22:00,
2013-03-08 17:27:00,36.5,0.2,28.67,SSW,199,5.4,6.9,21,0.00,CLR,OVC,0.00,WeatherDisplay:10.37,2013-03-08 22:27:00,
2013-03-08 17:32:00,36.3,1.0,28.67,SSE,154,5.8,5.8,22,0.00,CLR,OVC,0.00,WeatherDisplay:10.37,2013-03-08 22:32:00,
2013-03-08 17:37:00,36.3,1.0,28.67,South,182,8.0,8.1,22,0.00,CLR,OVC,0.00,WeatherDisplay:10.37,2013-03-08 22:37:00,
2013-03-08 17:42:00,36.1,0.9,28.67,South,176,7.2,10.4,22,0.00,CLR,OVC,0.00,WeatherDisplay:10.37,2013-03-08 22:42:00,
2013-03-08 17:47:00,36.1,0.9,28.67,South,169,5.8,8.1,22,0.00,CLR,OVC,0.00,WeatherDisplay:10.37,2013-03-08 22:47:00,
2013-03-08 17:52:00,36.0,0.7,28.67,South,191,3.1,8.1,22,0.00,CLR,OVC,0.00,WeatherDisplay:10.37,2013-03-08 22:52:00,
2013-03-08 17:57:00,35.8,0.6,28.67,SSW,209,5.4,5.8,22,0.00,CLR,OVC,0.00,WeatherDisplay:10.37,2013-03-08 22:57:00,
2013-03-08 18:02:00,35.6,0.4,28.67,SW,229,7.2,8.1,22,0.00,CLR,OVC,0.00,WeatherDisplay:10.37,2013-03-08 23:02:00,
2013-03-08 18:07:00,35.4,0.3,28.67,SW,227,4.0,12.7,22,0.00,CLR,OVC,0.00,WeatherDisplay:10.37,2013-03-08 23:07:00,
2013-03-08 18:12:00,35.4,0.3,28.67,SW,215,7.6,9.2,22,0.00,CLR,OVC,0.00,WeatherDisplay:10.37,2013-03-08 23:12:00,
2013-03-08 18:17:00,35.2,0.1,28.67,South,169,7.2,8.1,22,0.00,CLR,OVC,0.00,WeatherDisplay:10.37,2013-03-08 23:17:00,
2013-03-08 18:22:00,35.1,0.0,28.67,South,186,4.0,4.6,22,0.00,CLR,OVC,0.00,WeatherDisplay:10.37,2013-03-08 23:22:00,
2013-03-08 18:27:00,34.7,-0.3,28.67,SSW,207,0.0,5.8,22,0.00,CLR,OVC,0.00,WeatherDisplay:10.37,2013-03-08 23:27:00,
2013-03-08 18:32:00,34.5,-0.5,28.67,South,175,4.0,5.8,22,0.00,CLR,OVC,0.00,WeatherDisplay:10.37,2013-03-08 23:32:00,
2013-03-08 18:37:00,34.0,-1.0,28.67,SSW,204,4.0,5.8,22,0.00,CLR,OVC,0.00,WeatherDisplay:10.37,2013-03-08 23:37:00,
2013-03-08 18:42:00,33.6,-1.3,28.67,South,169,4.0,5.8,22,0.00,CLR,OVC,0.00,WeatherDisplay:10.37,2013-03-08 23:42:00,
2013-03-08 18:47:00,33.4,-1.4,28.67,South,190,6.3,8.3,22,0.00,CLR,OVC,0.00,WeatherDisplay:10.37,2013-03-08 23:47:00,
2013-03-08 18:52:00,33.3,-1.6,28.67,South,174,6.7,8.1,22,0.00,CLR,OVC,0.00,WeatherDisplay:10.37,2013-03-08 23:52:00,
2013-03-08 18:57:00,32.9,-1.9,28.67,South,180,4.9,10.4,22,0.00,CLR,OVC,0.00,WeatherDisplay:10.37,2013-03-08 23:57:00,
2013-03-08 19:02:00,32.7,0.7,28.67,South,182,5.4,8.1,25,0.00,CLR,OVC,0.00,WeatherDisplay:10.37,2013-03-09 00:02:00,
2013-03-08 19:07:00,32.7,0.7,28.70,SSW,208,5.8,11.5,25,0.00,CLR,OVC,0.00,WeatherDisplay:10.37,2013-03-09 00:07:00,
2013-03-08 19:12:00,32.4,0.4,28.70,SSW,212,4.0,8.1,25,0.00,CLR,OVC,0.00,WeatherDisplay:10.37,2013-03-09 00:12:00,
2013-03-08 19:17:00,32.2,0.2,28.70,South,179,4.5,5.8,25,0.00,CLR,OVC,0.00,WeatherDisplay:10.37,2013-03-09 00:17:00,
2013-03-08 19:22:00,32.0,0.1,28.70,SSW,204,6.3,6.3,25,0.00,CLR,OVC,0.00,WeatherDisplay:10.37,2013-03-09 00:22:00,
2013-03-08 19:27:00,32.0,0.1,28.70,South,180,4.9,8.1,25,0.00,CLR,OVC,0.00,WeatherDisplay:10.37,2013-03-09 00:27:00,
2013-03-08 19:32:00,31.8,-0.1,28.70,SSE,166,5.4,5.8,25,0.00,CLR,OVC,0.00,WeatherDisplay:10.37,2013-03-09 00:32:00,
2013-03-08 19:37:00,31.5,2.0,28.70,SSE,156,4.0,5.8,28,0.00,CLR,OVC,0.00,WeatherDisplay:10.37,2013-03-09 00:37:00,
2013-03-08 19:42:00,31.1,1.7,28.70,South,175,3.1,4.6,28,0.00,CLR,OVC,0.00,WeatherDisplay:10.37,2013-03-09 00:42:00,
2013-03-08 19:47:00,30.7,1.4,28.70,South,185,3.1,5.8,28,0.00,CLR,OVC,0.00,WeatherDisplay:10.37,2013-03-09 00:47:00,
2013-03-08 19:52:00,30.2,0.9,28.70,South,173,2.7,8.1,28,0.00,CLR,OVC,0.00,WeatherDisplay:10.37,2013-03-09 00:52:00,
2013-03-08 19:57:00,30.0,2.3,28.70,South,183,4.0,8.1,30,0.00,CLR,OVC,0.00,WeatherDisplay:10.37,2013-03-09 00:57:00,
2013-03-08 20:02:00,29.8,2.1,28.70,SSW,192,4.9,5.8,30,0.00,CLR,OVC,0.00,WeatherDisplay:10.37,2013-03-09 01:02:00,
2013-03-08 20:07:00,29.8,2.1,28.70,SSW,208,4.5,5.8,30,0.00,CLR,OVC,0.00,WeatherDisplay:10.37,2013-03-09 01:07:00,
2013-03-08 20:12:00,29.7,2.0,28.70,SSW,197,6.3,8.1,30,0.00,CLR,OVC,0.00,WeatherDisplay:10.37,2013-03-09 01:12:00,
2013-03-08 20:17:00,29.8,2.8,28.70,South,189,5.8,8.1,31,0.00,CLR,OVC,0.00,WeatherDisplay:10.37,2013-03-09 01:17:00,
2013-03-08 20:22:00,29.8,2.8,28.70,South,171,4.5,6.9,31,0.00,CLR,OVC,0.00,WeatherDisplay:10.37,2013-03-09 01:22:00,
2013-03-08 20:27:00,29.7,2.7,28.70,South,178,4.5,5.8,31,0.00,CLR,OVC,0.00,WeatherDisplay:10.37,2013-03-09 01:27:00,
2013-03-08 20:32:00,29.5,2.5,28.70,South,191,4.0,8.1,31,0.00,CLR,OVC,0.00,WeatherDisplay:10.37,2013-03-09 01:32:00,
2013-03-08 20:37:00,29.5,2.5,28.67,SSE,163,5.8,9.2,31,0.00,CLR,OVC,0.00,WeatherDisplay:10.37,2013-03-09 01:37:00,
2013-03-08 20:42:00,29.3,3.0,28.67,South,185,4.9,8.1,32,0.00,CLR,OVC,0.00,WeatherDisplay:10.37,2013-03-09 01:42:00,
2013-03-08 20:47:00,29.3,3.0,28.70,South,186,3.6,10.4,32,0.00,CLR,OVC,0.00,WeatherDisplay:10.37,2013-03-09 01:47:00,
2013-03-08 20:52:00,29.3,3.0,28.70,SSW,195,6.3,8.1,32,0.00,CLR,OVC,0.00,WeatherDisplay:10.37,2013-03-09 01:52:00,
2013-03-08 20:57:00,29.3,3.0,28.70,SSW,210,5.8,8.1,32,0.00,CLR,OVC,0.00,WeatherDisplay:10.37,2013-03-09 01:57:00,
2013-03-08 21:02:00,29.1,2.9,28.70,South,188,4.0,8.1,32,0.00,CLR,OVC,0.00,WeatherDisplay:10.37,2013-03-09 02:02:00,
2013-03-08 21:07:00,28.9,2.7,28.70,South,171,4.9,5.8,32,0.00,CLR,OVC,0.00,WeatherDisplay:10.37,2013-03-09 02:07:00,
2013-03-08 21:12:00,28.8,3.2,28.70,South,191,3.1,4.6,33,0.00,CLR,OVC,0.00,WeatherDisplay:10.37,2013-03-09 02:12:00,
2013-03-08 21:17:00,28.6,3.1,28.70,South,182,4.5,6.9,33,0.00,CLR,OVC,0.00,WeatherDisplay:10.37,2013-03-09 02:17:00,
2013-03-08 21:22:00,28.4,3.6,28.70,SSW,212,6.3,8.1,34,0.00,CLR,OVC,0.00,WeatherDisplay:10.37,2013-03-09 02:22:00,
2013-03-08 21:27:00,28.4,4.2,28.70,SSW,200,4.0,5.8,35,0.00,CLR,OVC,0.00,WeatherDisplay:10.37,2013-03-09 02:27:00,
2013-03-08 21:32:00,28.4,4.2,28.70,South,189,4.0,5.8,35,0.00,CLR,OVC,0.00,WeatherDisplay:10.37,2013-03-09 02:32:00,
2013-03-08 21:37:00,28.2,4.0,28.70,SSW,210,4.0,4.6,35,0.00,CLR,OVC,0.00,WeatherDisplay:10.37,2013-03-09 02:37:00,
2013-03-08 21:42:00,28.0,4.5,28.70,SSE,162,5.4,5.8,36,0.00,CLR,OVC,0.00,WeatherDisplay:10.37,2013-03-09 02:42:00,
2013-03-08 21:47:00,28.0,4.5,28.70,South,181,4.5,5.8,36,0.00,CLR,OVC,0.00,WeatherDisplay:10.37,2013-03-09 02:47:00,
2013-03-08 21:52:00,27.9,4.9,28.70,SSW,192,4.9,5.8,37,0.00,CLR,OVC,0.00,WeatherDisplay:10.37,2013-03-09 02:52:00,
2013-03-08 21:57:00,27.7,5.3,28.70,SSW,192,4.0,5.8,38,0.00,CLR,OVC,0.00,WeatherDisplay:10.37,2013-03-09 02:57:00,
2013-03-08 22:02:00,27.3,5.0,28.70,South,181,3.6,5.8,38,0.00,CLR,OVC,0.00,WeatherDisplay:10.37,2013-03-09 03:02:00,
2013-03-08 22:07:00,27.0,5.8,28.70,South,185,4.5,5.8,40,0.00,CLR,OVC,0.00,WeatherDisplay:10.37,2013-03-09 03:07:00,
2013-03-08 22:12:00,27.0,6.4,28.70,South,183,2.7,3.5,41,0.00,CLR,OVC,0.00,WeatherDisplay:10.37,2013-03-09 03:12:00,
2013-03-08 22:17:00,26.8,6.2,28.67,SE,146,3.1,3.5,41,0.00,CLR,OVC,0.00,WeatherDisplay:10.37,2013-03-09 03:17:00,
2013-03-08 22:22:00,26.6,6.0,28.67,South,182,3.6,5.8,41,0.00,CLR,OVC,0.00,WeatherDisplay:10.37,2013-03-09 03:22:00,
2013-03-08 22:27:00,26.4,5.9,28.67,SSE,168,3.6,5.8,41,0.00,CLR,OVC,0.00,WeatherDisplay:10.37,2013-03-09 03:27:00,
2013-03-08 22:32:00,26.1,5.5,28.67,SSW,194,3.6,5.8,41,0.00,CLR,OVC,0.00,WeatherDisplay:10.37,2013-03-09 03:32:00,
2013-03-08 22:37:00,25.9,5.9,28.67,SSW,200,4.0,5.8,42,0.00,CLR,OVC,0.00,WeatherDisplay:10.37,2013-03-09 03:37:00,
2013-03-08 22:42:00,25.9,5.9,28.67,South,177,3.1,4.6,42,0.00,CLR,OVC,0.00,WeatherDisplay:10.37,2013-03-09 03:42:00,
2013-03-08 22:47:00,25.5,6.1,28.67,South,178,3.1,3.5,43,0.00,CLR,OVC,0.00,WeatherDisplay:10.37,2013-03-09 03:47:00,
2013-03-08 22:52:00,25.3,6.4,28.67,South,183,2.7,3.5,44,0.00,CLR,OVC,0.00,WeatherDisplay:10.37,2013-03-09 03:52:00,
2013-03-08 22:57:00,25.7,6.8,28.67,SSW,196,3.1,4.6,44,0.00,CLR,OVC,0.00,WeatherDisplay:10.37,2013-03-09 03:57:00,
2013-03-08 23:02:00,25.9,6.9,28.67,South,181,4.0,4.6,44,0.00,CLR,OVC,0.00,WeatherDisplay:10.37,2013-03-09 04:02:00,
2013-03-08 23:07:00,26.1,7.1,28.67,SSW,195,3.1,3.5,44,0.00,CLR,OVC,0.00,WeatherDisplay:10.37,2013-03-09 04:07:00,
2013-03-08 23:12:00,26.1,6.6,28.67,SSE,166,3.1,3.5,43,0.00,CLR,OVC,0.00,WeatherDisplay:10.37,2013-03-09 04:12:00,
2013-03-08 23:17:00,26.4,6.9,28.67,South,177,3.1,5.8,43,0.00,CLR,OVC,0.00,WeatherDisplay:10.37,2013-03-09 04:17:00,
2013-03-08 23:22:00,26.2,6.7,28.67,South,176,2.7,5.8,43,0.00,CLR,OVC,0.00,WeatherDisplay:10.37,2013-03-09 04:22:00,
2013-03-08 23:27:00,26.1,6.6,28.67,South,171,2.2,2.7,43,0.00,CLR,OVC,0.00,WeatherDisplay:10.37,2013-03-09 04:27:00,
2013-03-08 23:32:00,26.1,7.1,28.67,SSW,193,4.0,5.8,44,0.00,CLR,OVC,0.00,WeatherDisplay:10.37,2013-03-09 04:32:00,
2013-03-08 23:37:00,26.1,7.1,28.67,South,179,0.0,2.3,44,0.00,CLR,OVC,0.00,WeatherDisplay:10.37,2013-03-09 04:37:00,
2013-03-08 23:42:00,25.9,6.4,28.67,South,178,3.1,4.6,43,0.00,CLR,OVC,0.00,WeatherDisplay:10.37,2013-03-09 04:42:00,
2013-03-08 23:47:00,25.7,6.8,28.67,South,186,3.1,3.6,44,0.00,CLR,OVC,0.00,WeatherDisplay:10.37,2013-03-09 04:47:00,
2013-03-08 23:52:00,25.3,6.4,28.67,South,185,3.1,5.8,44,0.00,CLR,OVC,0.00,WeatherDisplay:10.37,2013-03-09 04:52:00,
2013-03-08 23:57:00,25.2,6.8,28.67,SSE,159,2.2,3.6,45,0.00,CLR,OVC,0.00,WeatherDisplay:10.37,2013-03-09 04:57:00,